Flag for China Weather past 2 weeks in Nanjing, Jiangsu, China

Now
72 °F

Passing clouds.


Feels Like: 72 °F
Forecast: 67 / 72 °F
Wind: 6 mph from Northeast

Location: Nanjing

Current Time: Sep 23, 2014 at 12:12:19 AM

Latest Report: Sep 22, 2014 at 11:00 PM


Visibility: N/A

Pressure: 29.92 "Hg

Humidity: 78%

Dew point: 64 °F

Location of NanjingLocation

Historic Weather in Nanjing — Graph

°F

Nanjing temperature yesterday

Maximum temperature yesterday: 81 °F (at 11:00 AM)
Minimum temperature yesterday: 66 °F (at 12:00 AM)
Average temperature yesterday: 72 °F

Past Weeks' High & Low Weather Summary

 TemperatureHumidityPressure
High82 °F (Sep 9, 2:00 PM)100% (Sep 8, 6:00 AM)30.07 "Hg (Sep 8, 6:00 AM)
Low59 °F (Sep 20, 4:00 AM)51% (Sep 16, 4:00 PM)29.74 "Hg (Sep 8, 2:00 AM)
Average73 °F87%29.89 "Hg
* Reported Sep 7 11:00 PM — Sep 22 11:00 PM, Nanjing, Weather by CustomWeather, © 2014

Note: Actual official high and low records may vary slightly from our data, if they occured in-between our weather recording intervals... More about our weather records

Advertising

Nanjing weather history for previous 24 hours

 ConditionsComfort  
Time TempWeatherWind HumidityBarometerVisibility
11:00 PM
Sep 22
72 °FPassing clouds.6 mph78%29.92 "HgN/A
10:00 PM72 °FPassing clouds.8 mph73%29.92 "HgN/A
9:00 PM72 °FClear.8 mph69%29.92 "Hg10 mi
8:00 PM72 °FClear.8 mph69%29.92 "Hg10 mi
7:00 PM73 °FClear.8 mph65%29.92 "Hg10 mi
6:00 PM73 °FSunny.8 mph61%29.89 "Hg10 mi
5:00 PM75 °FSunny.10 mph57%29.89 "Hg10 mi
4:00 PM77 °FScattered clouds.15 mph54%29.89 "HgN/A
3:00 PM77 °FSunny.10 mph61%29.89 "Hg10 mi
2:00 PM77 °FSunny.10 mph61%29.92 "Hg10 mi
1:00 PM77 °FPassing clouds.10 mph65%29.92 "HgN/A
12:00 PM79 °FScattered clouds.13 mph58%29.95 "HgN/A
11:00 AM81 °FScattered clouds.22 mph54%29.98 "HgN/A
10:00 AM77 °FPassing clouds.15 mph65%29.98 "HgN/A
9:00 AM75 °FPassing clouds.15 mph69%29.98 "HgN/A
8:00 AM72 °FPassing clouds.10 mph83%29.98 "HgN/A
7:00 AM66 °FFog.6 mph100%29.98 "Hg3 mi
6:00 AM66 °FFog.6 mph94%29.98 "Hg2 mi
5:00 AM66 °FFog.6 mph100%29.98 "Hg3 mi
4:00 AM66 °FFog.6 mph94%29.98 "Hg3 mi
3:00 AM66 °FFog.3 mph100%29.98 "Hg2 mi
2:00 AM66 °FFog.3 mph100%29.98 "Hg3 mi
1:00 AM66 °FClear.3 mph100%30.01 "Hg4 mi
12:00 AM66 °FClear.6 mph100%30.01 "Hg5 mi
Weather by CustomWeather, © 2014

See weather overviewHow to use our weather pages